Weather History for Resolute CS, NT

Change the Weather History Date:

Saturday, October 12, 2013

  Actual Average Record
Temperature  
Mean Temperature 20 °F -  
Max Temperature 25 °F - - ()
Min Temperature 16 °F - - ()
Degree Days  
Heating Degree Days 44    
Moisture  
Dew Point 22 °F    
Average Humidity 95    
Maximum Humidity 96    
Minimum Humidity 91    
Precipitation  
Precipitation 0.08 in - - ()
Sea Level Pressure  
Sea Level Pressure 29.76 in    
Wind  
Wind Speed 25 mph ()    
Max Wind Speed 41 mph    
Max Gust Speed 50 mph    
T = Trace of Precipitation, MM = Missing Value Source: Averaged Metar Reports

Daily Weather History Graph

Daily Weather History Graph

Search for Another Location

Airport:

Trip Planner

Search our weather history database for the weather conditions in past years. The results will help you decide how hot, cold, wet, or windy it might be!

Date:

Astronomy

Oct. 12, 2013 Rise Set
Actual Time 7:48 AM MDT 4:21 PM MDT
Civil Twilight 6:26 AM MDT 5:43 PM MDT
Nautical Twilight 4:53 AM MDT 7:15 PM MDT
Astronomical Twilight 3:08 AM MDT 8:58 PM MDT
Moon 5:51 PM MDT (10/12) 8:55 PM MDT (10/12)
Length of Visible Light 11h 17m
Length of Day
8h 32m
First Quarter, 59% of the Moon is Illuminated
Oct 12
First Quarter
Oct 18
Full
Oct 26
Last Quarter
Nov 3
New
Nov 9
First Quarter

Hourly Weather History & Observations

Time (MDT) Temp. Windchill Dew Point Humidity Pressure Visibility Wind Dir Wind Speed Gust Speed Precip Events Conditions
12:00 AM 21 °F - 20 °F 95% 29.74 in - East 29.9 mph - -  
12:00 AM 21.4 °F 3.2 °F 20.1 °F 95% 29.74 in - East 29.9 mph 42.6 mph 0.03 in   Unknown
1:00 AM 21.7 °F 3.4 °F 20.5 °F 95% 29.73 in - East 31.1 mph 46.0 mph 0.05 in   Unknown
2:00 AM 22.1 °F 3.6 °F 20.8 °F 95% 29.72 in - East 32.2 mph 42.6 mph 0.03 in   Unknown
3:00 AM 22.3 °F 2.0 °F 21.0 °F 95% 29.71 in - ESE 41.4 mph 49.5 mph N/A   Unknown
4:00 AM 22.5 °F 3.2 °F 21.2 °F 95% 29.72 in - East 36.8 mph 47.2 mph N/A   Unknown
5:00 AM 22.8 °F 5.4 °F 21.6 °F 95% 29.73 in - East 28.8 mph 42.6 mph 0.01 in   Unknown
6:00 AM 23 °F - 21 °F 91% 29.73 in - East 28.8 mph - -  
6:00 AM 22.6 °F 5.2 °F 21.4 °F 95% 29.73 in - East 28.8 mph 38.0 mph N/A   Unknown
7:00 AM 23.0 °F 4.9 °F 21.7 °F 95% 29.74 in - East 32.2 mph 39.1 mph N/A   Unknown
8:00 AM 22.8 °F 6.0 °F 21.6 °F 95% 29.75 in - East 26.5 mph 33.4 mph N/A   Unknown
9:00 AM 23.0 °F 5.4 °F 21.7 °F 95% 29.74 in - East 29.9 mph 38.0 mph N/A   Unknown
10:00 AM 23.5 °F 6.1 °F 22.3 °F 95% 29.75 in - East 29.9 mph 38.0 mph N/A   Unknown
11:00 AM 23.5 °F 7.6 °F 22.5 °F 96% 29.74 in - East 24.2 mph 32.2 mph N/A   Unknown
12:00 PM 24 °F - 23 °F 94% 29.73 in - East 28.8 mph - -  
12:00 PM 24.1 °F 7.1 °F 23.0 °F 96% 29.73 in - East 28.8 mph 38.0 mph N/A   Unknown
1:00 PM 24.1 °F 7.4 °F 23.0 °F 96% 29.74 in - East 27.6 mph 40.3 mph 0.01 in   Unknown
2:00 PM 24.3 °F 8.3 °F 23.2 °F 96% 29.75 in - East 25.3 mph 32.2 mph 0.02 in   Unknown
3:00 PM 23.7 °F 11.0 °F 22.6 °F 96% 29.78 in - East 15.0 mph 21.9 mph N/A   Unknown
4:00 PM 24.6 °F 12.2 °F 23.5 °F 96% 29.79 in - ENE 15.0 mph - N/A   Unknown
5:00 PM 23.5 °F 9.4 °F 22.3 °F 95% 29.79 in - ENE 18.4 mph - N/A   Unknown
6:00 PM 22 °F - 21 °F 94% 29.81 in - NE 16.1 mph - -  
6:00 PM 22.5 °F 8.9 °F 21.0 °F 94% 29.81 in - NE 16.1 mph - N/A   Unknown
7:00 PM 24.3 °F 10.8 °F 23.2 °F 96% 29.81 in - ENE 17.3 mph 23.0 mph N/A   Unknown
8:00 PM 23.0 °F 9.2 °F 21.7 °F 95% 29.82 in - ENE 17.3 mph 23.0 mph N/A   Unknown
9:00 PM 22.5 °F 8.9 °F 21.2 °F 95% 29.83 in - ENE 16.1 mph - N/A   Unknown
10:00 PM 22.6 °F 8.7 °F 21.2 °F 94% 29.85 in - ENE 17.3 mph - N/A   Unknown
11:00 PM 22.8 °F 8.5 °F 21.4 °F 94% 29.86 in - ENE 18.4 mph - N/A   Unknown